Location: Diebersbach
(48.5163°N, 8.0558°E)
Time: 04:41:06
(UTC+00:00)

USA 229 - Pass Details

Date: 29 October 2021
Orbit: 946 x 1266 km, 63.4° (Epoch: 25 November)

Event Time Altitude Azimuth Distance (km) Brightness Sun altitude
Rises 17:22:08 0° 219° (SW) 3,637 7.2 -12.0°
Reaches altitude 10° 17:24:37 10° 219° (SW) 2,718 6.5 -12.4°
Maximum altitude 17:31:00 90° 188° (S) 1,026 3.6 -13.4°
Drops below altitude 10° 17:37:54 10° 42° (NE) 2,928 5.6 -14.6°
Enters shadow 17:38:25 - 42° (NE) 3,114 5.7 -14.6°
